Погода Оловянная

Погода Оловянная : погода сейчас, прогноз погоды и архив. Всё, что Вы хотите узнать о погоде Оловянная!

Хотите узнать прогноз погоды Оловянная? Тогда Вам сюда: Погода Оловянная

Поиск расширенной информации на нашем сайте:

Другие новости

Новости СМИ2

Главная страница сайта

Новости сайта

02.10.2013

Напоминаем, что на нашем новом сайте вы можете получить высокодетализированные прогнозы погоды по пунктам России, СНГ и мира (включающие важные для авиации метеовеличины, такие как направление и скорость ветра, видимость, явления погоды, количество и форма облачности, нижняя и верхняя граница облачности), а также ознакомиться с разнообразными материалами по авиационной метеорологии и подборкой полезных ссылок на эту тему.

Сайт Метеоцентр.Азия посвящён разработке технологий оптимизации авиаметеорологического обслуживания, включая проектирование и перспективное создание нескольких автоматизированных авиаметеорологических систем:
- система выпуска высокодетальных прогностических карт явлений погоды для нижнего воздушного пространства по России и ближнему зарубежью;
- система верификации прогнозов TAF (выпускаемых синоптиками официальных АМСГ РФ и ближнего зарубежья) и AUTOTAF (выпускаемых сайтом Метеоцентр.Азия) - выявление ошибок, онлайн-сопоставление с фактической погодой METAR, автоматическое внесение коррективов в прогнозы при резком отклонении фактической погоды от прогноза, подсчёт оправдываемости прогнозов по элементам и в целом;
- система обработки, анализа и отображения авиаметеорологической информации для применения провайдерами метеорологической информации.

Рекомендуем: Общение на форуме

Погода Оловянная - сегодня

Время (UTC), дата Ветер
(°,м/с) 
Видим.   Явления Облачность Т
(°С)
Тd
(°С)
f(%) Тe
(°С)
Pmin
(гПа)
dP
(гПа)
Po
(мм)
O2
(г/м3)
Тmin Tmax R s Состояние
почвы
21 23.04.17 340 (С) 6-10{10}  20000 м  {снег}  10/10 2000 м 
[As trans]
+0.7 -1.1 88 -3  1014.9  1.4  703  283           
00 24.04.17 350 (С) 6-11{11}  20000 м  {снег}  10/10 1000 м 
[Sc]
+1.9 -0.3 85 -1  1016.8  705  282  -0.3    0.3    влажная 
03 24.04.17 360 (С) 6-10{14}  20000 м    9/9 1000 м 
[Sc]
+3.5 -1 72 +1  1018.4  1.9  706  281           
06 24.04.17 350 (С) 8-12{15}  20000 м  {ливн. осадки}  8/8 1000 м кучево-дожд. 
[Cb cap]
+6.6 -2 54 +4  1018.1  0.5  707  278           
09 24.04.17 350 (С) 7-11{14}  20000 м    8/8 1000 м кучево-дожд. 
[Cb cap]
+5.3 +0.1 69 +3  1019.6  1.1  707  279           
12 24.04.17 330 (СЗ) 4{16}  20000 м    6/6 1000 м 
[Sc diur, vesp]
+2.5 +0.2 85 1022.3  1.7  709  283    +6.6  0.0     
15 24.04.17 350 (С) 20000 м    ясно 
+1.3 -0.8 86 1023.7  0.9  709  284           
18 24.04.17 330 (СЗ) 20000 м    ясно 
-0 -2.3 84 +1  1024.8  0.6  710  286           
21 24.04.17 360 (С) 20000 м    3/3 2000 м средняя 
[Ac lent]
-1.2 -3.7 83 -2  1025.6  0.4  710  288           
00 25.04.17 350 (С) 20000 м    4/3 1000 м верхняя 
[Cu hum|Cc]
+2.8 -3.2 65 1025.4  0.9  711  284  -1.5        влажная 
03 25.04.17 340 (С) 7-10{13}  20000 м    5/5 1000 м 
[Cu hum]
+6.4 -4.1 47 +4  1023.9  -0.4  710  280           
06 25.04.17 360 (С) 7-12{14}  20000 м    8/8 1000 м 
[Cu med, cong]
+8.6 -7.6 31 +6  1022.3  -1  710  278           
09 25.04.17 360 (С) 6-12{13}  20000 м    5/5 1000 м 
[Cu med, cong]
+10.3 -8.6 26 +9  1020.9  -0.9  709  276           
12 25.04.17 330 (СЗ) 2{12}  20000 м    ясно 
+7.2 -8.5 32 +7  1022.6  0.8  710  279    +10.3       
15 25.04.17 190 (Ю) 20000 м    ясно 
+0.4 -5.9 63 +1  1025.7  1.1  711  286           
18 25.04.17 290 (З) 20000 м    ясно 
+0.6 -6.3 60 -1  1026  0.3  711  286           
21 25.04.17 тихо ()   20000 м    3/0 верхняя 
[Cc]
-1.8 -6.6 70 -2  1026.3  -0.4  710  289           
00 26.04.17 330 (СЗ) 20000 м    8/0 верхняя 
[Ci fib]
+5.2 -4.3 50 +6  1024.1  710  281  -2.2        влажная 
03 26.04.17 330 (СЗ) 20000 м    4/0 верхняя 
[Ci fib]
+12.6 -6.9 25 +12  1021.3  -0.7  710  274           
06 26.04.17 300 (СЗ) 7-15{15}  20000 м    8/0 верхняя 
[Ci]
+16.4 -7.8 18 +16  1017  -3.1  708  270           
09 26.04.17 310 (СЗ) 7-11{15}  20000 м    6/0 верхняя 
[Ci sp]
+16.4 -11 14 +16  1013.9  -2.9  705  269           
12 26.04.17 290 (З) 3{13}  20000 м    3/0 верхняя 
[Cc]
+13.7 -9.9 18 +14  1012.7  -1.8  704  271    +17.4       
15 26.04.17 310 (СЗ) 7{11}  20000 м    ясно 
+9.4 -9.4 25 +7  1015.5  1.6  705  275           
18 26.04.17 310 (СЗ) 5{10}  20000 м    10/10 2000 м 
[Ns]
+7.8 -7.8 32 +6  1015.4  -0.6  705  277           
21 26.04.17 300 (СЗ) 20000 м    6/6 2000 м средняя 
[Ac lent]
+6.3 -7.2 37 +4  1015.2  -0.5  704  278           
Время (UTC), дата Ветер
(°,м/с) 
Видим.   Явления Облачность Т
(°С)
Тd
(°С)
f(%) Тe
(°С)
Pmin
(гПа)
dP
(гПа)
Po
(мм)
O2
(г/м3)
Тmin Tmax R s Состояние
почвы

Для получения пояснительной информации подведите курсор к названию столбца.

ПОГОДА Оловянная - архив

Всё, что Вы хотите узнать о погоде Оловянная - удобно и подробно!

Выберите нужную дату (начиная с 1 января 2015* года) и нажмите кнопку "Найти".
Будут отображены архивные сводки погоды по пункту Оловянная, начиная с указанной даты.


Отображать данные в формате CSV (для использования в таблицах Excel)


Внимание! Наш архив погоды предназначен исключительно для личного некоммерческого использования в познавательных целях. Если Вам необходимы официальные справки о состоянии погоды (для производственных, юридических, коммерческих и т.п. целей), обращайтесь в органы Росгидромета.

*Примечание: данная дата относится к архиву по метеостанциям СССР (Россия, СНГ, Балтия).
Архив по метеостанциям Зарубежной Европы и Азии (кроме Китая) хранится 10 дней, по другим регионам земного шара (Китай, Африка, Америка, Австралия, Океания) - 1 день.

Оловянная - район местоположения метеостанции


Название, широта, долгота, высота метеостанции:
Оловянная 50.9°ш. 115.6°д. 640 м над ур. моря [Российская Федерация]

Дополнительная информация

В oтличие oт бoльшинства пoгoдных сайтoв мы публикуем пoдрoбную метеoинфoрмацию в детальнoм прoфессиoнальнoм фoрмате.

Характеристики температуры и влажнoсти вoздуха измеряются на высoте 2 м в тени вдали oт зданий и деревьев.
Скoрoсть ветра измеряется на высoте 10 м (на урoвне рoста челoвека скoрoсть ветра ниже в 1.5-2 раза). Если метеoстанция нахoдится в гoрoде или в лесу, тo скoрoсть ветра занижена на 2-4 м/с пo сравнению с oткрытым местoм. Скoрoсть ветра над акватoриями крупных рек и oзёр, а также на вершинах хoлмoв на 2-5 м/с выше, чем в oбычных услoвиях.
Атмoсфернoе давление в разных тoчках местнoсти мoжет значительнo oтличаться oт давления на метеoстанции, в зависимoсти oт услoвий рельефа (при пoдъёме на 10 м давление пoнижается примернo на 1 мм рт.ст.).